Showing default

HULIANWANG DIGUI-17, 62977

Orbit data source: Space-Track

HULIANWANG DIGUI-17, 62977 is a payload satellite owned by Zhongguo Xingwang (CN) in LEO that was launched on Tue, 11 Feb 2025 UTC via a CHANG ZHENG 8A launch vehicle from the Wenchang Satellite Launch Center (WSC). Payload-class satellites include a variety of spacecraft equipped with specific instruments for various scientific and technological missions. These include communications satellites like Starlink; space stations such as the ISS; scientific satellites like the Hubble; Earth observation satellites from companies like Planet Labs, Umbra, and HawkEye 360; GPS; miniature CubeSats for education and research; and military/defense satellites.

Loading next visibility...
Identifier
62977, 2025-030G
Orbit
LEO
Country
Flag of CNCN / PRC
Related business
Manufacturer
CAST
Mission
Operational Civil Communications
Bus & Motor
GUOWANG C, Unknown motor
Mass
~800 kg wet, ~800 kg dry
Launch date (UTC)
2025-02-11 (7 months ago)
Launch vehicle
CHANG ZHENG 8A
Launch site
Wenchang Satellite Launch Center (WSC)
Object type
Payload
Rocket body
Debris
Shape & HBR
Box + 2 Pan, 5.0 m
Radar Cross Section
5.935 m², Large (>1 m²)

Expand to show TLE details & history
Last TLE update: 6 hours ago

TLE from 6 hours ago
0 HULIANWANG DIGUI-17
1 62977U 25030G   25243.51951331 -.00000063  00000-0  13147-3 0  9994
2 62977  50.0051 194.4529 0001028 351.2332   8.8522 13.29329264 27339
Epoch: 2025-08-31T12:28Z
TLE epoch observation values (Epoch: 2025-08-31T12:28:05.949Z)
Latitude
-0.00004°
Longitude
27.48979°
Altitude
1,149.036 km
Speed
7.28 km/s
True Right ascension
12h 57m 48s
True Declination
0° 00' 00"
Sunlit
Object was in daylight at epoch
Visualization orbit readout
Latitude
Unknown
Longitude
Unknown
Altitude
Unknown
Speed
Unknown
Apparent Right ascension
Unknown
Apparent Declination
Unknown
Sunlit
N/A
Visualization observer readout
Local Sidereal Time
10:23:06
Azimuth
Unknown
Elevation
Unknown
Doppler factor
Unknown
Orbital elements
Apogee altitude
1,150.773 km
Perigee altitude
1,149.225 km
Semi-major axis
7,528.136 km
Eccentricity
0.0001
Inclination
50.0051°
RAAN
194.4529°
Arg. of periapsis
351.2332°
True anomaly
8.85401°
Mean anomaly
8.8522°
Eccentric anomaly
8.85311°
Mean motion
3.32286 °/min
Orbital period
108.34 mins
BSTAR
0.00013147
Loading maneuver chart data...
Computing Atmospheric mass density...
Loading historical data...
Loading historical data...
Loading historical data...
Loading historical data...
Loading historical data...
Loading historical data...
Loading historical data...

Documentation

Showing up to 5 results
|